sat.trackr.live / text

‹ back to catalog

STARLINK-33955

NORAD 63902 · 2025-095N

PAYLOAD ACTIVE UNKNOWN

§ Identity

Operator
Country
US
Launch date
2025-05-10
Launch site
AFETR
Launch vehicle
Mass (kg)
RCS (m²)

Purposes: comms

External: N2YO · Heavens-Above · Gunter

§ Orbital elements

Epoch: 2026-05-24T22:33:10.447200Z

Period
94.27 min
Inclination
43.0000°
Eccentricity
0.0000876
Mean motion
15.27593866 rev/d
Perigee alt
482.4 km
Apogee alt
483.6 km
Semi-major
6,861.1 km
B*
5.1564e-4
RAAN
105.2159°
Arg perigee
277.9819°
Mean anomaly
82.0933°
Rev number
5,944

§ Raw data

STARLINK-339551 63902U 25095N   26144.93970425  .00013960  00000+0  51564-3 0  99992 63902  43.0000 105.2159 0000876 277.9819  82.0933 15.27593866 59445

JSON: /api/v1/satellites/63902 · /tle

For live sub-satellite position, see the globe view (requires WebGL).

§ Visibility from observer

Set your observer location to see the next 7 days of passes ≥ 10°. The values pass through the URL so the page stays shareable.

No JS? Fill the form by hand. The geolocation button needs JavaScript.